Location: Mentone
(34.5413°N, 85.5351°W)
Time: 10:27:32
(UTC-05:00)

Transit 2A Rocket - Visible Passes

Search period start: 17 August 2017 00:00
Search period end: 27 August 2017 00:00
Orbit: 587 x 916 km, 66.7° (Epoch: 17 August)

Date Brightness Start Highest point End Pass type
(mag) Time Alt. Az. Time Alt. Az. Time Alt. Az.
19 Aug 7.5 05:07:47 10° SE 05:10:08 14° ESE 05:12:33 10° ENE visible
21 Aug 5.9 05:23:03 10° S 05:27:21 43° ESE 05:32:02 10° NE visible
22 Aug 7.0 04:41:41 10° SSE 04:45:12 22° ESE 04:48:57 10° NE visible
23 Aug 7.5 04:01:54 10° ESE 04:03:10 11° ESE 04:04:28 10° E visible
23 Aug 4.9 05:40:25 10° SW 05:44:57 61° WNW 05:49:57 10° NNE visible
24 Aug 5.0 04:58:17 11° SSW 05:02:34 70° ESE 05:07:34 10° NNE visible
25 Aug 6.1 04:17:40 19° SSE 04:20:20 35° ESE 04:24:50 10° NE visible
26 Aug 6.9 03:36:59 16° SE 03:38:14 18° ESE 03:41:31 10° ENE visible
26 Aug 5.4 05:16:55 16° WSW 05:20:21 40° WNW 05:25:09 10° NNE visible
